Starlink 30307

operational
NORAD ID: 57747 Int'l Des: 2023-131 Owner: SPXS Country: US Constellation: starlink
LEOCIRCULAR

Starlink 30307について

説明を読み込み中...

リアルタイム位置

3D地球を読み込み中...

次回通過

高度履歴

Altitude vs Time

uPlot chart will show altitude changes over time

軌道要素

1 57747U 23131R 25305.97594134 .00000718 00000-0 68189-4 0 9999
2 57747 43.0023 145.6700 0001223 265.2188 94.8515 15.02547502120711
Epoch: Nov 1, 2025 • Age: 21 hours

現在のステータス

高度 559.6 km
速度 7.58 km/s
衛星直下点 -5.44°S, 150.88°E
打ち上げ日 Sep 1, 2023
運用期間 2.1 years
タイプ internet

技術仕様

分類 Payload
質量 730.00 kg
乾燥質量 700.00 kg
総質量 730.00 kg
長さ 0.30 m
直径 4.10 m
スパン 29.00 m
形状 Box + pan
製造者 SPXS
バスタイプ Starlink V2M
フェーズステータス In Orbit
所有者/国 SPXS/US

大規模コンステレーション

Loading constellations...